Preview of NWS' New Version of Forecast
This preview is not operational and should not be used for support decisions.

Regional Weather Roundup (RWR)

Issued by National Weather Service (NWS)

                            
000
ASCA42 TJSJ 211210
RWRPR 
PUERTO RICO/U.S. VIRGIN ISLANDS HOURLY WEATHER ROUNDUP
NATIONAL WEATHER SERVICE SAN JUAN PR
800 AM AST SUN APR 21 2019

PRZ001>002-007>008-010-211300-
PUERTO RICO
  
CITY           SKY/WX    TMP DP  RH WIND       PRES   REMARKS
SAN JUAN LMM   MOSUNNY   77  72  83 E5        30.08R                  
AGUADILLA      SUNNY     75  70  83 E8        30.08R                  
CEIBA          MOSUNNY   81  72  74 MISG      30.08S                  
$$

VIZ001>002-211300-
U.S. VIRGIN ISLANDS
  
CITY           SKY/WX    TMP DP  RH WIND       PRES   REMARKS
CHARLOTTE AMA  SUNNY     81  70  69 E14       30.07R                  
CHRISTIANSTED  MOSUNNY   82  68  61 E18       30.07R                  
$$

HOURLY WEATHER ROUNDUP FOR THE NEWS MEDIA
  
CITY           SKY/WX    TMP DP  RH WIND       PRES   REMARKS
ORLANDO        FAIR      60  54  80 W3        30.10R                  
NEW YORK       PTSUNNY   54  53  97 SE10      29.95S                  
NEWARK         PTSUNNY   55  51  86 E3        29.94R                  
CHICAGO        FAIR      48  19  31 S5        29.96R                  
HARTFORD       LGT RAIN  56  56 100 CALM      30.01S FOG              
BOSTON         LGT RAIN  60  56  86 SW6       30.02R                  
DALLAS         PTCLDY    60  53  77 S9        29.93R                  
PHILADELPHIA   PTSUNNY   56  52  86 CALM      29.93R                  
LOS ANGELES    MOCLDY    56  50  80 W6        30.00S                  
WASHINGTON DC  FAIR      51  43  74 S5        29.95R